Orbital Elements at Epoch 2459200.5 (2020-Dec-17.0) TDB
Reference: JPL 19 (heliocentric ecliptic J2000)
Element | Value | Uncertainty (1-sigma) | Units |
e | .196095610784381 | 5.2938e-08 | |
a | 2.369362072270778 | 1.0767e-08 | au |
q | 1.904740569539494 | 1.2525e-07 | au |
i | 2.925805501846875 | 3.9046e-06 | deg |
node | 286.9132932374662 | 0.00012643 | deg |
peri | 299.2910188419565 | 0.0001272 | deg |
M | 173.4144144404012 | 1.5633e-05 | deg |
tp | 2458558.805572093616 (2019-Mar-16.30557209) | 5.6163e-05 | TDB |
period | 1332.126829201336 3.65 | 9.0804e-06 2.486e-08 | d yr |
n | .2702445383641395 | 1.8421e-09 | deg/d |
Q | 2.833983575002063 | 1.2878e-08 | au |
|
| | Orbit Determination Parameters
Additional Information
|